contact:dominique.lefevre@mio.osupytheas.fr, maurice.libes@osupytheas.fr, didier.mallarino@osupytheas.fr
Project:EMSO http://www.emso-fr.org/EMSO-France
Depth: 2436.0 m
Title:EMSO Ligure Ouest : Data MII capteur CSTAR
DateTime,Latitude,Longitude,Instrument_Serial,Reference_Counts,Signal_Counts,Corrected_Signal_raw_counts,Calculated_Beam_c_inverse_meters,Internal_thermistor_counts
DateTime,Latitude,Longitude,Instrument_Serial,Reference_Counts,Signal_Counts,Corrected_Signal_raw_counts,Calculated_Beam_c_inverse_meters,Internal_thermistor_counts
2020-05-24T00:01:25,42.805,6.029,CST-1368DR,6286,8807,15157,0.119,551
2020-05-24T00:04:26,42.805,6.029,CST-1368DR,6286,8810,15162,0.118,551
2020-05-24T00:07:28,42.805,6.029,CST-1368DR,6286,8810,15161,0.118,551
2020-05-24T00:10:30,42.805,6.029,CST-1368DR,6286,8810,15161,0.118,551
2020-05-24T00:13:32,42.805,6.029,CST-1368DR,6286,8810,15162,0.118,550
2020-05-24T00:16:33,42.805,6.029,CST-1368DR,6286,8809,15160,0.119,551
2020-05-24T00:19:35,42.805,6.029,CST-1368DR,6286,8809,15160,0.119,551
2020-05-24T00:22:37,42.805,6.029,CST-1368DR,6286,8809,15161,0.118,551
2020-05-24T00:25:38,42.805,6.029,CST-1368DR,6286,8809,15160,0.119,551
2020-05-24T00:28:40,42.805,6.029,CST-1368DR,6286,8810,15163,0.118,551
2020-05-24T00:31:42,42.805,6.029,CST-1368DR,6286,8809,15160,0.119,550
2020-05-24T00:34:44,42.805,6.029,CST-1368DR,6286,8809,15160,0.119,551
2020-05-24T00:37:45,42.805,6.029,CST-1368DR,6286,8809,15160,0.119,551
2020-05-24T00:40:47,42.805,6.029,CST-1368DR,6286,8809,15160,0.119,551
2020-05-24T00:43:49,42.805,6.029,CST-1368DR,6286,8806,15154,0.120,551
2020-05-24T00:46:50,42.805,6.029,CST-1368DR,6286,8809,15160,0.119,551
2020-05-24T00:49:52,42.805,6.029,CST-1368DR,6286,8807,15157,0.119,551
2020-05-24T00:52:54,42.805,6.029,CST-1368DR,6286,8810,15162,0.118,551
2020-05-24T00:55:55,42.805,6.029,CST-1368DR,6286,8810,15161,0.118,551
2020-05-24T00:58:57,42.805,6.029,CST-1368DR,6286,8809,15161,0.118,551
2020-05-24T01:01:59,42.805,6.029,CST-1368DR,6286,8808,15158,0.119,551
2020-05-24T01:05:01,42.805,6.029,CST-1368DR,6286,8810,15162,0.118,551
2020-05-24T01:08:03,42.805,6.029,CST-1368DR,6286,8809,15160,0.119,551
2020-05-24T01:11:04,42.805,6.029,CST-1368DR,6286,8807,15157,0.119,551
2020-05-24T01:14:06,42.805,6.029,CST-1368DR,6286,8809,15160,0.119,550
2020-05-24T01:17:08,42.805,6.029,CST-1368DR,6286,8808,15158,0.119,551
2020-05-24T01:20:09,42.805,6.029,CST-1368DR,6286,8808,15158,0.119,551
2020-05-24T01:23:11,42.805,6.029,CST-1368DR,6286,8809,15160,0.119,551
2020-05-24T01:26:13,42.805,6.029,CST-1368DR,6286,8807,15157,0.119,551
2020-05-24T01:29:14,42.805,6.029,CST-1368DR,6286,8808,15159,0.119,551
2020-05-24T01:32:16,42.805,6.029,CST-1368DR,6286,8808,15158,0.119,551
2020-05-24T01:35:18,42.805,6.029,CST-1368DR,6286,8809,15160,0.119,551
2020-05-24T01:38:19,42.805,6.029,CST-1368DR,6286,8810,15162,0.118,551
2020-05-24T01:41:21,42.805,6.029,CST-1368DR,6286,8810,15162,0.118,551
2020-05-24T01:44:23,42.805,6.029,CST-1368DR,6286,8810,15162,0.118,551
2020-05-24T01:47:24,42.805,6.029,CST-1368DR,6286,8809,15161,0.118,551
2020-05-24T01:50:26,42.805,6.029,CST-1368DR,6286,8808,15158,0.119,551
2020-05-24T01:53:28,42.805,6.029,CST-1368DR,6286,8809,15161,0.118,551
2020-05-24T01:56:30,42.805,6.029,CST-1368DR,6286,8808,15158,0.119,551
2020-05-24T01:59:31,42.805,6.029,CST-1368DR,6286,8809,15160,0.119,551
2020-05-24T02:02:33,42.805,6.029,CST-1368DR,6286,8810,15161,0.118,551
2020-05-24T02:05:35,42.805,6.029,CST-1368DR,6286,8809,15161,0.118,551
2020-05-24T02:08:36,42.805,6.029,CST-1368DR,6286,8809,15161,0.118,551
2020-05-24T02:11:38,42.805,6.029,CST-1368DR,6286,8809,15161,0.118,551
2020-05-24T02:14:40,42.805,6.029,CST-1368DR,6286,8807,15156,0.120,551
2020-05-24T02:17:41,42.805,6.029,CST-1368DR,6286,8808,15158,0.119,551
2020-05-24T02:20:43,42.805,6.029,CST-1368DR,6286,8809,15160,0.119,551
2020-05-24T02:23:45,42.805,6.029,CST-1368DR,6286,8808,15159,0.119,551
2020-05-24T02:26:46,42.805,6.029,CST-1368DR,6286,8809,15161,0.118,551
2020-05-24T02:29:48,42.805,6.029,CST-1368DR,6286,8809,15160,0.119,551
2020-05-24T02:32:50,42.805,6.029,CST-1368DR,6286,8809,15161,0.118,551
2020-05-24T02:35:52,42.805,6.029,CST-1368DR,6286,8809,15161,0.118,551
2020-05-24T02:38:53,42.805,6.029,CST-1368DR,6286,8808,15159,0.119,551
2020-05-24T02:41:55,42.805,6.029,CST-1368DR,6286,8810,15162,0.118,551
2020-05-24T02:44:57,42.805,6.029,CST-1368DR,6286,8809,15160,0.119,551
2020-05-24T02:47:58,42.805,6.029,CST-1368DR,6285,8809,15162,0.118,551
2020-05-24T02:51:00,42.805,6.029,CST-1368DR,6286,8807,15157,0.119,551
2020-05-24T02:54:02,42.805,6.029,CST-1368DR,6286,8809,15161,0.118,551
2020-05-24T02:57:04,42.805,6.029,CST-1368DR,6286,8807,15157,0.119,551
2020-05-24T03:00:05,42.805,6.029,CST-1368DR,6286,8810,15162,0.118,551
2020-05-24T03:03:07,42.805,6.029,CST-1368DR,6286,8809,15160,0.119,551
2020-05-24T03:06:09,42.805,6.029,CST-1368DR,6286,8809,15160,0.119,551
2020-05-24T03:09:10,42.805,6.029,CST-1368DR,6286,8809,15161,0.118,551
2020-05-24T03:12:12,42.805,6.029,CST-1368DR,6285,8807,15158,0.119,550
2020-05-24T03:15:14,42.805,6.029,CST-1368DR,6286,8808,15158,0.119,551
2020-05-24T03:18:16,42.805,6.029,CST-1368DR,6286,8809,15160,0.119,551
2020-05-24T03:21:17,42.805,6.029,CST-1368DR,6285,8809,15162,0.118,551
2020-05-24T03:24:19,42.805,6.029,CST-1368DR,6286,8810,15162,0.118,551
2020-05-24T03:27:21,42.805,6.029,CST-1368DR,6286,8809,15160,0.119,551
2020-05-24T03:30:22,42.805,6.029,CST-1368DR,6285,8808,15160,0.119,551
2020-05-24T03:33:24,42.805,6.029,CST-1368DR,6285,8810,15164,0.117,550
2020-05-24T03:36:26,42.805,6.029,CST-1368DR,6286,8810,15162,0.118,551
2020-05-24T03:39:27,42.805,6.029,CST-1368DR,6285,8809,15162,0.118,551
2020-05-24T03:42:29,42.805,6.029,CST-1368DR,6285,8810,15164,0.117,551
2020-05-24T03:45:31,42.805,6.029,CST-1368DR,6285,8807,15159,0.119,551
2020-05-24T03:48:33,42.805,6.029,CST-1368DR,6285,8809,15163,0.118,551
2020-05-24T03:51:34,42.805,6.029,CST-1368DR,6285,8809,15163,0.118,551
2020-05-24T03:54:36,42.805,6.029,CST-1368DR,6285,8809,15162,0.118,551
2020-05-24T03:57:38,42.805,6.029,CST-1368DR,6285,8808,15161,0.118,551
2020-05-24T04:00:39,42.805,6.029,CST-1368DR,6285,8809,15163,0.118,551
2020-05-24T04:03:41,42.805,6.029,CST-1368DR,6285,8807,15159,0.119,551
2020-05-24T04:06:43,42.805,6.029,CST-1368DR,6285,8810,15164,0.117,551
2020-05-24T04:09:45,42.805,6.029,CST-1368DR,6285,8809,15162,0.118,551
2020-05-24T04:12:47,42.805,6.029,CST-1368DR,6285,8807,15159,0.119,551
2020-05-24T04:15:48,42.805,6.029,CST-1368DR,6285,8809,15162,0.118,551
2020-05-24T04:18:50,42.805,6.029,CST-1368DR,6285,8808,15161,0.118,551
2020-05-24T04:21:52,42.805,6.029,CST-1368DR,6285,8809,15163,0.118,551
2020-05-24T04:24:53,42.805,6.029,CST-1368DR,6285,8807,15160,0.119,551
2020-05-24T04:27:55,42.805,6.029,CST-1368DR,6285,8808,15161,0.118,551
2020-05-24T04:30:57,42.805,6.029,CST-1368DR,6285,8809,15162,0.118,551
2020-05-24T04:33:58,42.805,6.029,CST-1368DR,6285,8807,15160,0.119,551
2020-05-24T04:37:00,42.805,6.029,CST-1368DR,6285,8810,15164,0.117,551
2020-05-24T04:40:02,42.805,6.029,CST-1368DR,6285,8809,15163,0.118,551
2020-05-24T04:43:04,42.805,6.029,CST-1368DR,6285,8809,15163,0.118,551
2020-05-24T04:46:05,42.805,6.029,CST-1368DR,6285,8809,15162,0.118,551
2020-05-24T04:49:07,42.805,6.029,CST-1368DR,6285,8810,15164,0.117,551
2020-05-24T04:52:09,42.805,6.029,CST-1368DR,6285,8809,15162,0.118,551
2020-05-24T04:55:10,42.805,6.029,CST-1368DR,6285,8809,15163,0.118,551
2020-05-24T04:58:12,42.805,6.029,CST-1368DR,6285,8809,15163,0.118,551
2020-05-24T05:01:14,42.805,6.029,CST-1368DR,6285,8809,15163,0.118,550
2020-05-24T05:04:16,42.805,6.029,CST-1368DR,6285,8810,15164,0.117,550
2020-05-24T05:07:18,42.805,6.029,CST-1368DR,6285,8809,15162,0.118,551
2020-05-24T05:10:19,42.805,6.029,CST-1368DR,6285,8809,15163,0.118,551
2020-05-24T05:13:21,42.805,6.029,CST-1368DR,6285,8808,15161,0.118,551
2020-05-24T05:16:23,42.805,6.029,CST-1368DR,6285,8808,15161,0.118,551
2020-05-24T05:19:24,42.805,6.029,CST-1368DR,6285,8809,15162,0.118,551
2020-05-24T05:22:26,42.805,6.029,CST-1368DR,6285,8809,15163,0.118,551
2020-05-24T05:25:28,42.805,6.029,CST-1368DR,6285,8810,15164,0.117,551
2020-05-24T05:28:30,42.805,6.029,CST-1368DR,6285,8810,15164,0.117,551
2020-05-24T05:31:31,42.805,6.029,CST-1368DR,6285,8807,15159,0.119,551
2020-05-24T05:34:33,42.805,6.029,CST-1368DR,6285,8808,15161,0.118,551
2020-05-24T05:37:35,42.805,6.029,CST-1368DR,6285,8808,15161,0.118,551
2020-05-24T05:40:36,42.805,6.029,CST-1368DR,6285,8808,15161,0.118,551
2020-05-24T05:43:38,42.805,6.029,CST-1368DR,6285,8808,15160,0.119,551
2020-05-24T05:46:40,42.805,6.029,CST-1368DR,6285,8808,15161,0.118,551
2020-05-24T05:49:42,42.805,6.029,CST-1368DR,6285,8806,15157,0.119,551
2020-05-24T05:52:43,42.805,6.029,CST-1368DR,6285,8807,15159,0.119,551
2020-05-24T05:55:45,42.805,6.029,CST-1368DR,6285,8807,15159,0.119,551
2020-05-24T05:58:47,42.805,6.029,CST-1368DR,6285,8807,15159,0.119,550
2020-05-24T06:01:49,42.805,6.029,CST-1368DR,6285,8808,15160,0.119,551
2020-05-24T06:04:50,42.805,6.029,CST-1368DR,6285,8807,15160,0.119,551
2020-05-24T06:07:52,42.805,6.029,CST-1368DR,6285,8807,15159,0.119,551
2020-05-24T06:10:54,42.805,6.029,CST-1368DR,6285,8808,15160,0.119,551
2020-05-24T06:13:55,42.805,6.029,CST-1368DR,6285,8806,15157,0.119,551
2020-05-24T06:16:57,42.805,6.029,CST-1368DR,6285,8807,15159,0.119,551
2020-05-24T06:19:59,42.805,6.029,CST-1368DR,6285,8807,15159,0.119,551
2020-05-24T06:23:00,42.805,6.029,CST-1368DR,6285,8807,15159,0.119,551
2020-05-24T06:26:02,42.805,6.029,CST-1368DR,6285,8803,15152,0.121,551
2020-05-24T06:29:04,42.805,6.029,CST-1368DR,6285,8806,15158,0.119,551
2020-05-24T06:32:05,42.805,6.029,CST-1368DR,6285,8806,15157,0.119,551
2020-05-24T06:35:07,42.805,6.029,CST-1368DR,6285,8807,15160,0.119,550
2020-05-24T06:38:09,42.805,6.029,CST-1368DR,6285,8807,15159,0.119,551
2020-05-24T06:41:10,42.805,6.029,CST-1368DR,6285,8807,15159,0.119,551
2020-05-24T06:44:12,42.805,6.029,CST-1368DR,6285,8806,15158,0.119,551
2020-05-24T06:47:14,42.805,6.029,CST-1368DR,6285,8807,15158,0.119,551
2020-05-24T06:50:15,42.805,6.029,CST-1368DR,6285,8807,15160,0.119,551
2020-05-24T06:53:17,42.805,6.029,CST-1368DR,6285,8807,15159,0.119,551
2020-05-24T06:56:19,42.805,6.029,CST-1368DR,6285,8804,15155,0.120,551
2020-05-24T06:59:21,42.805,6.029,CST-1368DR,6285,8805,15155,0.120,551
2020-05-24T07:02:22,42.805,6.029,CST-1368DR,6285,8806,15157,0.119,551
2020-05-24T07:05:24,42.805,6.029,CST-1368DR,6285,8806,15157,0.119,551
2020-05-24T07:08:26,42.805,6.029,CST-1368DR,6285,8807,15160,0.119,551
2020-05-24T07:11:27,42.805,6.029,CST-1368DR,6285,8807,15159,0.119,551
2020-05-24T07:14:29,42.805,6.029,CST-1368DR,6285,8806,15158,0.119,551
2020-05-24T07:17:31,42.805,6.029,CST-1368DR,6285,8807,15159,0.119,551
2020-05-24T07:20:33,42.805,6.029,CST-1368DR,6285,8807,15159,0.119,551
2020-05-24T07:23:34,42.805,6.029,CST-1368DR,6285,8807,15158,0.119,551
2020-05-24T07:26:36,42.805,6.029,CST-1368DR,6285,8807,15159,0.119,551
2020-05-24T07:29:38,42.805,6.029,CST-1368DR,6285,8805,15156,0.120,550
2020-05-24T07:32:39,42.805,6.029,CST-1368DR,6285,8806,15157,0.119,550
2020-05-24T07:35:41,42.805,6.029,CST-1368DR,6285,8805,15156,0.120,550
2020-05-24T07:38:43,42.805,6.029,CST-1368DR,6285,8807,15158,0.119,551
2020-05-24T07:41:45,42.805,6.029,CST-1368DR,6285,8807,15158,0.119,551
2020-05-24T07:44:46,42.805,6.029,CST-1368DR,6285,8806,15158,0.119,551
2020-05-24T07:47:48,42.805,6.029,CST-1368DR,6285,8807,15159,0.119,551
2020-05-24T07:50:50,42.805,6.029,CST-1368DR,6285,8807,15159,0.119,551
2020-05-24T07:53:51,42.805,6.029,CST-1368DR,6285,8806,15158,0.119,551
2020-05-24T07:56:53,42.805,6.029,CST-1368DR,6285,8806,15158,0.119,551
2020-05-24T07:59:55,42.805,6.029,CST-1368DR,6285,8806,15158,0.119,551
2020-05-24T08:02:56,42.805,6.029,CST-1368DR,6285,8806,15158,0.119,551
2020-05-24T08:05:58,42.805,6.029,CST-1368DR,6284,8804,15157,0.119,551
2020-05-24T08:09:00,42.805,6.029,CST-1368DR,6285,8807,15160,0.119,551
2020-05-24T08:12:02,42.805,6.029,CST-1368DR,6284,8806,15160,0.119,551
2020-05-24T08:15:03,42.805,6.029,CST-1368DR,6284,8807,15162,0.118,551
2020-05-24T08:18:05,42.805,6.029,CST-1368DR,6284,8806,15160,0.119,551
2020-05-24T08:21:07,42.805,6.029,CST-1368DR,6284,8806,15160,0.119,551
2020-05-24T08:24:08,42.805,6.029,CST-1368DR,6285,8807,15158,0.119,551
2020-05-24T08:27:10,42.805,6.029,CST-1368DR,6284,8803,15155,0.120,551
2020-05-24T08:30:12,42.805,6.029,CST-1368DR,6284,8805,15158,0.119,551
2020-05-24T08:33:13,42.805,6.029,CST-1368DR,6284,8807,15162,0.118,551
2020-05-24T08:36:15,42.805,6.029,CST-1368DR,6284,8807,15161,0.118,551
2020-05-24T08:39:17,42.805,6.029,CST-1368DR,6284,8805,15157,0.119,551
2020-05-24T08:42:18,42.805,6.029,CST-1368DR,6284,8805,15159,0.119,551
2020-05-24T08:45:20,42.805,6.029,CST-1368DR,6284,8800,15149,0.121,551
2020-05-24T08:48:22,42.805,6.029,CST-1368DR,6284,8804,15156,0.120,551
2020-05-24T08:51:24,42.805,6.029,CST-1368DR,6284,8805,15158,0.119,551
2020-05-24T08:54:25,42.805,6.029,CST-1368DR,6284,8806,15160,0.119,551
2020-05-24T08:57:27,42.805,6.029,CST-1368DR,6284,8804,15156,0.120,550
2020-05-24T09:00:29,42.805,6.029,CST-1368DR,6284,8804,15156,0.120,551
2020-05-24T09:03:31,42.805,6.029,CST-1368DR,6284,8806,15160,0.119,551
2020-05-24T09:06:32,42.805,6.029,CST-1368DR,6284,8805,15159,0.119,551
2020-05-24T09:09:34,42.805,6.029,CST-1368DR,6284,8806,15159,0.119,550
2020-05-24T09:12:36,42.805,6.029,CST-1368DR,6284,8806,15160,0.119,551
2020-05-24T09:15:37,42.805,6.029,CST-1368DR,6284,8806,15160,0.119,551
2020-05-24T09:18:39,42.805,6.029,CST-1368DR,6284,8804,15156,0.120,551
2020-05-24T09:21:41,42.805,6.029,CST-1368DR,6284,8802,15153,0.120,551
2020-05-24T09:24:42,42.805,6.029,CST-1368DR,6284,8804,15156,0.120,551
2020-05-24T09:27:44,42.805,6.029,CST-1368DR,6284,8802,15153,0.120,551
2020-05-24T09:30:46,42.805,6.029,CST-1368DR,6284,8803,15154,0.120,551
2020-05-24T09:33:48,42.805,6.029,CST-1368DR,6284,8805,15158,0.119,551
2020-05-24T09:36:49,42.805,6.029,CST-1368DR,6284,8805,15158,0.119,551
2020-05-24T09:39:51,42.805,6.029,CST-1368DR,6284,8806,15160,0.119,551
2020-05-24T09:42:53,42.805,6.029,CST-1368DR,6284,8806,15159,0.119,551
2020-05-24T09:45:54,42.805,6.029,CST-1368DR,6284,8801,15150,0.121,551
2020-05-24T09:48:56,42.805,6.029,CST-1368DR,6284,8804,15156,0.120,551
2020-05-24T09:51:58,42.805,6.029,CST-1368DR,6284,8805,15159,0.119,550
2020-05-24T09:55:00,42.805,6.029,CST-1368DR,6284,8804,15156,0.120,551
2020-05-24T09:58:02,42.805,6.029,CST-1368DR,6284,8804,15157,0.119,551
2020-05-24T10:01:03,42.805,6.029,CST-1368DR,6284,8804,15156,0.120,551
2020-05-24T10:04:05,42.805,6.029,CST-1368DR,6284,8802,15153,0.120,551
2020-05-24T10:07:07,42.805,6.029,CST-1368DR,6284,8804,15157,0.119,551
2020-05-24T10:10:08,42.805,6.029,CST-1368DR,6284,8805,15159,0.119,551
2020-05-24T10:13:10,42.805,6.029,CST-1368DR,6284,8804,15156,0.120,551
2020-05-24T10:16:12,42.805,6.029,CST-1368DR,6284,8805,15157,0.119,551
2020-05-24T10:19:13,42.805,6.029,CST-1368DR,6284,8806,15160,0.119,551
2020-05-24T10:22:15,42.805,6.029,CST-1368DR,6284,8799,15148,0.122,551
2020-05-24T10:25:17,42.805,6.029,CST-1368DR,6284,8803,15155,0.120,551
2020-05-24T10:28:18,42.805,6.029,CST-1368DR,6284,8806,15159,0.119,551
2020-05-24T10:31:20,42.805,6.029,CST-1368DR,6284,8806,15160,0.119,551
2020-05-24T10:34:22,42.805,6.029,CST-1368DR,6284,8804,15156,0.120,551
2020-05-24T10:37:24,42.805,6.029,CST-1368DR,6284,8803,15155,0.120,551
2020-05-24T10:40:25,42.805,6.029,CST-1368DR,6284,8805,15159,0.119,551
2020-05-24T10:43:27,42.805,6.029,CST-1368DR,6284,8803,15155,0.120,551
2020-05-24T10:46:29,42.805,6.029,CST-1368DR,6284,8805,15158,0.119,551
2020-05-24T10:49:30,42.805,6.029,CST-1368DR,6284,8802,15152,0.121,551
2020-05-24T10:52:32,42.805,6.029,CST-1368DR,6284,8802,15153,0.120,551
2020-05-24T10:55:34,42.805,6.029,CST-1368DR,6284,8804,15157,0.119,551
2020-05-24T10:58:35,42.805,6.029,CST-1368DR,6284,8807,15162,0.118,551
2020-05-24T11:01:37,42.805,6.029,CST-1368DR,6284,8801,15150,0.121,550
2020-05-24T11:04:39,42.805,6.029,CST-1368DR,6284,8802,15153,0.120,551
2020-05-24T11:07:40,42.805,6.029,CST-1368DR,6284,8805,15159,0.119,551
2020-05-24T11:10:42,42.805,6.029,CST-1368DR,6284,8799,15147,0.122,551
2020-05-24T11:13:44,42.805,6.029,CST-1368DR,6284,8805,15159,0.119,551
2020-05-24T11:16:45,42.805,6.029,CST-1368DR,6284,8804,15157,0.119,551
2020-05-24T11:19:47,42.805,6.029,CST-1368DR,6284,8800,15150,0.121,551
2020-05-24T11:22:49,42.805,6.029,CST-1368DR,6284,8805,15159,0.119,551
2020-05-24T11:25:50,42.805,6.029,CST-1368DR,6284,8804,15156,0.120,551
2020-05-24T11:28:52,42.805,6.029,CST-1368DR,6284,8807,15161,0.118,551
2020-05-24T11:31:54,42.805,6.029,CST-1368DR,6284,8803,15154,0.120,551
2020-05-24T11:34:55,42.805,6.029,CST-1368DR,6284,8805,15157,0.119,551
2020-05-24T11:37:57,42.805,6.029,CST-1368DR,6284,8805,15158,0.119,551
2020-05-24T11:40:59,42.805,6.029,CST-1368DR,6284,8806,15160,0.119,551
2020-05-24T11:44:00,42.805,6.029,CST-1368DR,6283,8807,15163,0.118,551
2020-05-24T11:47:02,42.805,6.029,CST-1368DR,6283,8803,15157,0.119,550
2020-05-24T11:50:04,42.805,6.029,CST-1368DR,6283,8806,15162,0.118,551
2020-05-24T11:53:05,42.805,6.029,CST-1368DR,6283,8803,15157,0.119,551
2020-05-24T11:56:07,42.805,6.029,CST-1368DR,6283,8805,15160,0.119,551
2020-05-24T11:59:09,42.805,6.029,CST-1368DR,6283,8804,15158,0.119,550
2020-05-24T12:02:10,42.805,6.029,CST-1368DR,6283,8804,15158,0.119,551
2020-05-24T12:05:12,42.805,6.029,CST-1368DR,6284,8806,15159,0.119,551
2020-05-24T12:08:14,42.805,6.029,CST-1368DR,6283,8805,15160,0.119,551
2020-05-24T12:11:16,42.805,6.029,CST-1368DR,6283,8804,15158,0.119,551
2020-05-24T12:14:17,42.805,6.029,CST-1368DR,6283,8804,15159,0.119,551
2020-05-24T12:17:19,42.805,6.029,CST-1368DR,6283,8803,15156,0.120,551
2020-05-24T12:20:21,42.805,6.029,CST-1368DR,6283,8803,15157,0.119,551
2020-05-24T12:23:22,42.805,6.029,CST-1368DR,6283,8804,15158,0.119,551
2020-05-24T12:26:24,42.805,6.029,CST-1368DR,6283,8805,15160,0.119,551
2020-05-24T12:29:26,42.805,6.029,CST-1368DR,6283,8806,15162,0.118,550
2020-05-24T12:32:27,42.805,6.029,CST-1368DR,6283,8792,15138,0.124,551
2020-05-24T12:35:29,42.805,6.029,CST-1368DR,6283,8803,15157,0.119,551
2020-05-24T12:38:31,42.805,6.029,CST-1368DR,6283,8801,15153,0.120,551
2020-05-24T12:41:32,42.805,6.029,CST-1368DR,6283,8805,15160,0.119,551
2020-05-24T12:44:34,42.805,6.029,CST-1368DR,6283,8806,15162,0.118,551
2020-05-24T12:47:36,42.805,6.029,CST-1368DR,6283,8800,15151,0.121,551
2020-05-24T12:50:37,42.805,6.029,CST-1368DR,6283,8805,15160,0.119,551
2020-05-24T12:53:39,42.805,6.029,CST-1368DR,6283,8804,15159,0.119,551
2020-05-24T12:56:41,42.805,6.029,CST-1368DR,6283,8804,15158,0.119,550
2020-05-24T12:59:43,42.805,6.029,CST-1368DR,6283,8805,15160,0.119,551
2020-05-24T13:02:44,42.805,6.029,CST-1368DR,6283,8804,15159,0.119,550
2020-05-24T13:05:46,42.805,6.029,CST-1368DR,6283,8805,15160,0.119,551
2020-05-24T13:08:48,42.805,6.029,CST-1368DR,6283,8801,15153,0.120,551
2020-05-24T13:11:50,42.805,6.029,CST-1368DR,6283,8802,15154,0.120,551
2020-05-24T13:14:51,42.805,6.029,CST-1368DR,6283,8806,15162,0.118,551
2020-05-24T13:17:53,42.805,6.029,CST-1368DR,6283,8805,15161,0.118,551
2020-05-24T13:20:55,42.805,6.029,CST-1368DR,6283,8801,15153,0.120,550
2020-05-24T13:23:57,42.805,6.029,CST-1368DR,6283,8804,15159,0.119,551
2020-05-24T13:26:59,42.805,6.029,CST-1368DR,6283,8805,15160,0.119,551
2020-05-24T13:30:00,42.805,6.029,CST-1368DR,6283,8799,15150,0.121,551
2020-05-24T13:33:02,42.805,6.029,CST-1368DR,6283,8799,15150,0.121,551
2020-05-24T13:36:04,42.805,6.029,CST-1368DR,6283,8804,15159,0.119,551
2020-05-24T13:39:06,42.805,6.029,CST-1368DR,6283,8804,15159,0.119,551
2020-05-24T13:42:07,42.805,6.029,CST-1368DR,6283,8804,15159,0.119,551
2020-05-24T13:45:09,42.805,6.029,CST-1368DR,6283,8805,15160,0.119,551
2020-05-24T13:48:11,42.805,6.029,CST-1368DR,6283,8804,15159,0.119,550
2020-05-24T13:51:12,42.805,6.029,CST-1368DR,6283,8802,15154,0.120,551
2020-05-24T13:54:14,42.805,6.029,CST-1368DR,6283,8804,15159,0.119,551
2020-05-24T13:57:16,42.805,6.029,CST-1368DR,6283,8792,15138,0.124,551
2020-05-24T14:00:17,42.805,6.029,CST-1368DR,6283,8803,15157,0.119,551
2020-05-24T14:03:19,42.805,6.029,CST-1368DR,6283,8804,15158,0.119,551
2020-05-24T14:06:21,42.805,6.029,CST-1368DR,6283,8799,15150,0.121,551
2020-05-24T14:09:23,42.805,6.029,CST-1368DR,6283,8796,15145,0.123,551
2020-05-24T14:12:24,42.805,6.029,CST-1368DR,6283,8805,15160,0.119,551
2020-05-24T14:15:26,42.805,6.029,CST-1368DR,6283,8796,15144,0.123,551
2020-05-24T14:18:28,42.805,6.029,CST-1368DR,6283,8803,15157,0.119,551
2020-05-24T14:21:29,42.805,6.029,CST-1368DR,6283,8804,15159,0.119,551
2020-05-24T14:24:31,42.805,6.029,CST-1368DR,6283,8803,15157,0.119,550
2020-05-24T14:27:33,42.805,6.029,CST-1368DR,6283,8803,15157,0.119,551
2020-05-24T14:30:34,42.805,6.029,CST-1368DR,6283,8803,15156,0.120,551
2020-05-24T14:33:36,42.805,6.029,CST-1368DR,6283,8805,15160,0.119,551
2020-05-24T14:36:38,42.805,6.029,CST-1368DR,6283,8804,15158,0.119,551
2020-05-24T14:39:39,42.805,6.029,CST-1368DR,6283,8803,15157,0.119,550
2020-05-24T14:42:41,42.805,6.029,CST-1368DR,6283,8804,15159,0.119,551
2020-05-24T14:45:43,42.805,6.029,CST-1368DR,6283,8803,15156,0.120,551
2020-05-24T14:48:44,42.805,6.029,CST-1368DR,6283,8804,15158,0.119,551
2020-05-24T14:51:46,42.805,6.029,CST-1368DR,6283,8803,15157,0.119,551
2020-05-24T14:54:48,42.805,6.029,CST-1368DR,6283,8798,15149,0.121,550
2020-05-24T14:57:50,42.805,6.029,CST-1368DR,6283,8804,15159,0.119,550
2020-05-24T15:00:51,42.805,6.029,CST-1368DR,6283,8801,15153,0.120,551
2020-05-24T15:03:53,42.805,6.029,CST-1368DR,6283,8801,15153,0.120,551
2020-05-24T15:06:55,42.805,6.029,CST-1368DR,6283,8802,15155,0.120,551
2020-05-24T15:09:56,42.805,6.029,CST-1368DR,6283,8804,15158,0.119,551
2020-05-24T15:12:58,42.805,6.029,CST-1368DR,6283,8797,15147,0.122,550
2020-05-24T15:16:00,42.805,6.029,CST-1368DR,6283,8804,15159,0.119,551
2020-05-24T15:19:01,42.805,6.029,CST-1368DR,6283,8804,15158,0.119,551
2020-05-24T15:22:03,42.805,6.029,CST-1368DR,6283,8804,15159,0.119,551
2020-05-24T15:25:05,42.805,6.029,CST-1368DR,6283,8803,15156,0.120,551
2020-05-24T15:28:06,42.805,6.029,CST-1368DR,6283,8803,15157,0.119,551
2020-05-24T15:31:08,42.805,6.029,CST-1368DR,6283,8799,15150,0.121,551
2020-05-24T15:34:10,42.805,6.029,CST-1368DR,6283,8803,15156,0.120,551
2020-05-24T15:37:11,42.805,6.029,CST-1368DR,6283,8803,15157,0.119,551
2020-05-24T15:40:13,42.805,6.029,CST-1368DR,6283,8802,15156,0.120,551
2020-05-24T15:43:15,42.805,6.029,CST-1368DR,6283,8803,15157,0.119,551
2020-05-24T15:46:17,42.805,6.029,CST-1368DR,6283,8799,15150,0.121,551
2020-05-24T15:49:18,42.805,6.029,CST-1368DR,6283,8801,15153,0.120,551
2020-05-24T15:52:20,42.805,6.029,CST-1368DR,6283,8803,15156,0.120,551
2020-05-24T15:55:22,42.805,6.029,CST-1368DR,6283,8800,15152,0.121,551
2020-05-24T15:58:23,42.805,6.029,CST-1368DR,6283,8803,15157,0.119,551
2020-05-24T16:01:25,42.805,6.029,CST-1368DR,6283,8802,15156,0.120,550
2020-05-24T16:04:27,42.805,6.029,CST-1368DR,6283,8804,15159,0.119,551
2020-05-24T16:07:28,42.805,6.029,CST-1368DR,6283,8802,15156,0.120,551
2020-05-24T16:10:30,42.805,6.029,CST-1368DR,6283,8800,15152,0.121,550
2020-05-24T16:13:32,42.805,6.029,CST-1368DR,6283,8804,15159,0.119,551
2020-05-24T16:16:33,42.805,6.029,CST-1368DR,6283,8800,15151,0.121,551
2020-05-24T16:19:35,42.805,6.029,CST-1368DR,6283,8804,15158,0.119,551
2020-05-24T16:22:37,42.805,6.029,CST-1368DR,6283,8800,15152,0.121,551
2020-05-24T16:25:39,42.805,6.029,CST-1368DR,6283,8802,15155,0.120,551
2020-05-24T16:28:40,42.805,6.029,CST-1368DR,6283,8800,15151,0.121,551
2020-05-24T16:31:42,42.805,6.029,CST-1368DR,6283,8800,15152,0.121,551
2020-05-24T16:34:44,42.805,6.029,CST-1368DR,6283,8802,15154,0.120,550
2020-05-24T16:37:45,42.805,6.029,CST-1368DR,6283,8797,15146,0.122,551
2020-05-24T16:40:47,42.805,6.029,CST-1368DR,6283,8801,15153,0.120,551
2020-05-24T16:43:49,42.805,6.029,CST-1368DR,6283,8802,15155,0.120,550
2020-05-24T16:46:50,42.805,6.029,CST-1368DR,6283,8804,15159,0.119,551
2020-05-24T16:49:52,42.805,6.029,CST-1368DR,6283,8803,15157,0.119,551
2020-05-24T16:52:54,42.805,6.029,CST-1368DR,6283,8803,15156,0.120,551